STARLINK-1346, 45560

Orbit data source: Space-Track

STARLINK-1346, 45560 is a payload satellite owned by SpaceX/Seattle (US) in LEO that was launched on Wed, 22 Apr 2020 UTC via an FALCON 9 launch vehicle from the Air Force Eastern Test Range (AFETR). Payloads include a variety of satellites, spacecraft, and rockets equipped with specific instruments for various scientific and technological missions. These include communications satellites like Starlink; space stations such as the ISS; scientific satellites like the Hubble; Earth observation satellites from companies like Planet Labs, Umbra, and HawkEye 360; GPS; miniature CubeSats for education and research; and military/defense satellites.

Loading next visibility...
STARLINK-1346 details
Identifier
45560, 2020-025AF
Orbit
LEO
Last TLE update9 hours ago
Origin
Flag of USSpaceX/Seattle (US)
ManufacturerSpaceX/Seattle
MissionOperational Commercial Communications
Bus & MotorSTARLINK, Unknown motor
Mass260 kg wet, ~248 kg dry
Launch date (UTC)
2020-04-22 (5 years ago)
Launch vehicle
FALCON 9
Launch site
Air Force Eastern Test Range (AFETR)
Object type
Payload
Rocket body
Debris
Shape & HBRBox + 1 Pan, 8.86 m
Radar Cross Section13.562 m², Large (>1 m²)

Expand to show TLE details & history

TLE from 9 hours ago
0 STARLINK-1346
1 45560U 20025AF  24361.11249008  .00006641  00000-0  39768-3 0  9993
2 45560  53.0544 245.7199 0001441  96.1562 263.9594 15.12130813258805
Epoch: 2024-12-26T02:41Z
Definitive object data (Epoch: 2024-12-26T02:41:59.142Z)
Latitude-0.00002°
Longitude110.1269°
Altitude530.689 km
Speed7.599 km/s
True Right ascension16h 22m 52s
True Declination0° 00' 00"
Sunlit
Object was in daylight at TLE epoch
Visualization TLE readout
Latitude-37.42907°
Longitude-36.63973°
Altitude542.455 km
Speed7.59 km/s
Apparent Right ascension03h 08m 13s
Apparent Declination-55° 26' 19"
Sunlit
Object is in full shadow
Visualization observer readout
Local Sidereal Time10:59:48
Azimuth227.382° WSW
Elevation-47.054°
Doppler factor1
Orbital elements
Apogee altitude530.97 km
Perigee altitude528.979 km
Semi-major axis6,908.111 km
Eccentricity0.0001441
Inclination53.0544°
RAAN245.7199°
Arg. of periapsis96.1562°
True anomaly263.94298°
Mean anomaly263.9594°
Eccentric anomaly263.95119°
Mean motion3.78011 °/min
BSTAR0.00039768
Orbital period95.24 mins
Loading maneuver chart data...
Loading historical data...
Loading historical data...
Loading historical data...
Loading historical data...
Loading historical data...
Loading historical data...
Loading historical data...

STARLINK-1346 Visibility forecast

Observer location: undefined°, undefined

Span
Click to sort rows by Start time (UTC) header in descending order
Start Az.
Max El. time (UTC)
Max El. Az.
Max El.
End time (UTC)
End Az.
6 mins2024-12-26 18:43:25.758Z200.313° SSW2024-12-26 18:46:25.758Z134.769° SE33.565°2024-12-26 18:49:25.758Z67.373° ENE
5 mins2024-12-26 20:23:25.758Z279.874° WNW2024-12-26 20:25:25.758Z323.914° NNW27.129°2024-12-26 20:28:25.758Z28.185° NE
5 mins2024-12-27 01:24:25.758Z336.572° NNW2024-12-27 01:26:25.758Z40.646° NE34.39°2024-12-27 01:29:25.758Z102.932° ESE
5 mins2024-12-27 03:03:25.758Z269.703° W2024-12-27 03:05:25.758Z224.707° SW23.587°2024-12-27 03:08:25.758Z173.865° S
|